BAW12AT EGKK-LKPR

Flight info

Callsign BAW12AT
Flight time 1h 36m
Altitude 33000
Route EGKK/26L MIMF1M MIMFO Y312 DVR UL9 KONAN UL607 SPI DCT GUBAX DCT KOMIB DCT TONSU Z35 ODOMO DCT LOMKI LOMK9R LKPR/ARVEG.R30
Aircraft A320/M-SDE3/2233

Departure

Time 2026-04-16 21:58
Airport London Gatwick Airport (EGKK)

Arrival

Time 2026-04-16 23:34
Airport Václav Havel Airport Prague (LKPR)
Time Latitude Longitude Altitude Speed Heading
2026-04-16 21:30 51.15661 -0.17700 205 ft 0 kts 168°
2026-04-16 21:51 51.15680 -0.17707 214 ft 4 kts 168°
2026-04-16 21:51 51.15705 -0.17715 213 ft 4 kts 165°
2026-04-16 21:51 51.15727 -0.17734 208 ft 4 kts 115°
2026-04-16 21:52 51.15731 -0.17766 209 ft 1 kts 88°
2026-04-16 21:52 51.15731 -0.17772 207 ft 0 kts 88°
2026-04-16 21:53 51.15739 -0.17683 212 ft 19 kts 75°
2026-04-16 21:54 51.15696 -0.17512 207 ft 19 kts 163°
2026-04-16 21:54 51.15566 -0.17453 208 ft 20 kts 167°
2026-04-16 21:54 51.15425 -0.17403 211 ft 22 kts 167°
2026-04-16 21:54 51.15318 -0.17341 212 ft 13 kts 121°
2026-04-16 21:55 51.15324 -0.17194 209 ft 14 kts 81°
2026-04-16 21:55 51.15350 -0.17031 209 ft 16 kts 75°
2026-04-16 21:55 51.15364 -0.16910 212 ft 2 kts 84°
2026-04-16 21:55 51.15363 -0.16900 213 ft 1 kts 93°
2026-04-16 21:56 51.15363 -0.16877 213 ft 3 kts 94°
2026-04-16 21:56 51.15360 -0.16834 208 ft 5 kts 95°
2026-04-16 21:56 51.15356 -0.16771 205 ft 6 kts 101°
2026-04-16 21:56 51.15326 -0.16765 205 ft 8 kts 197°
2026-04-16 21:57 51.15167 -0.16806 216 ft 27 kts 194°
2026-04-16 21:57 51.15082 -0.17111 212 ft 55 kts 258°
2026-04-16 21:57 51.14938 -0.18135 215 ft 130 kts 257°
2026-04-16 21:57 51.14690 -0.19840 265 ft 181 kts 256°
2026-04-16 21:58 51.14402 -0.21854 705 ft 187 kts 256°
2026-04-16 21:58 51.14139 -0.23877 1358 ft 185 kts 256°
2026-04-16 21:58 51.13868 -0.25944 1736 ft 200 kts 256°
2026-04-16 21:58 51.13723 -0.28209 2204 ft 214 kts 275°
2026-04-16 21:59 51.14288 -0.30420 2941 ft 221 kts 304°
2026-04-16 21:59 51.15474 -0.31873 3933 ft 217 kts 333°
2026-04-16 21:59 51.16991 -0.32215 4606 ft 229 kts
2026-04-16 21:59 51.18496 -0.31139 4945 ft 252 kts 42°
2026-04-16 22:00 51.19402 -0.28764 5012 ft 254 kts 78°
2026-04-16 22:00 51.19744 -0.26004 5016 ft 254 kts 82°
2026-04-16 22:00 51.20053 -0.23226 5013 ft 254 kts 82°
2026-04-16 22:00 51.20360 -0.20453 5007 ft 255 kts 82°
2026-04-16 22:01 51.20694 -0.17612 5016 ft 264 kts 81°
2026-04-16 22:01 51.21056 -0.14738 5006 ft 265 kts 81°
2026-04-16 22:01 51.21432 -0.11855 5009 ft 266 kts 80°
2026-04-16 22:01 51.21813 -0.08969 5010 ft 266 kts 80°
2026-04-16 22:02 51.22195 -0.06083 5009 ft 266 kts 80°
2026-04-16 22:02 51.22564 -0.03286 5589 ft 250 kts 80°
2026-04-16 22:02 51.22917 -0.00640 6579 ft 237 kts 81°
2026-04-16 22:02 51.23258 0.01911 7255 ft 239 kts 81°
2026-04-16 22:03 51.23606 0.04627 7497 ft 261 kts 81°
2026-04-16 22:03 51.23976 0.07548 7949 ft 273 kts 81°
2026-04-16 22:03 51.24358 0.10536 8623 ft 276 kts 81°
2026-04-16 22:03 51.24745 0.13555 9318 ft 279 kts 81°
2026-04-16 22:04 51.25136 0.16596 10008 ft 281 kts 81°
2026-04-16 22:04 51.25422 0.19677 10596 ft 281 kts 92°
2026-04-16 22:04 51.25291 0.22786 11154 ft 282 kts 101°
2026-04-16 22:04 51.25047 0.25907 11449 ft 285 kts 101°
2026-04-16 22:05 51.24806 0.29064 11982 ft 289 kts 100°
2026-04-16 22:05 51.24564 0.32267 12520 ft 292 kts 100°
2026-04-16 22:05 51.24320 0.35506 13077 ft 296 kts 100°
2026-04-16 22:05 51.24072 0.38782 13624 ft 299 kts 100°
2026-04-16 22:06 51.23817 0.42097 14115 ft 302 kts 100°
2026-04-16 22:06 51.23304 0.48828 15083 ft 309 kts 100°
2026-04-16 22:06 51.23042 0.52242 15554 ft 311 kts 101°
2026-04-16 22:07 51.22775 0.55682 16030 ft 314 kts 101°
2026-04-16 22:07 51.22506 0.59156 16513 ft 317 kts 101°
2026-04-16 22:07 51.22233 0.62671 16993 ft 320 kts 101°
2026-04-16 22:07 51.21958 0.66206 17480 ft 323 kts 101°
2026-04-16 22:08 51.21677 0.69783 17964 ft 326 kts 101°
2026-04-16 22:08 51.21393 0.73385 18411 ft 329 kts 101°
2026-04-16 22:08 51.21104 0.77030 18813 ft 332 kts 101°
2026-04-16 22:08 51.20811 0.80687 19246 ft 334 kts 101°
2026-04-16 22:09 51.20513 0.84382 19792 ft 337 kts 101°
2026-04-16 22:09 51.20215 0.88100 20177 ft 339 kts 101°
2026-04-16 22:09 51.19913 0.91846 20564 ft 342 kts 101°
2026-04-16 22:09 51.19612 0.95566 20928 ft 344 kts 101°
2026-04-16 22:10 51.19302 0.99362 21285 ft 347 kts 101°
2026-04-16 22:10 51.18989 1.03184 21646 ft 349 kts 101°
2026-04-16 22:10 51.18673 1.07031 21998 ft 351 kts 100°
2026-04-16 22:10 51.18355 1.10900 22346 ft 353 kts 100°
2026-04-16 22:11 51.18031 1.14821 22551 ft 363 kts 100°
2026-04-16 22:11 51.17693 1.18877 22692 ft 375 kts 100°
2026-04-16 22:11 51.17342 1.23065 22828 ft 387 kts 100°
2026-04-16 22:11 51.16977 1.27386 22971 ft 398 kts 100°
2026-04-16 22:12 51.16603 1.31816 23107 ft 410 kts 100°
2026-04-16 22:12 51.16218 1.36374 23241 ft 421 kts 99°
2026-04-16 22:12 51.15896 1.41068 23388 ft 432 kts 97°
2026-04-16 22:12 51.15651 1.45893 23552 ft 441 kts 96°
2026-04-16 22:13 51.15452 1.50803 23858 ft 447 kts 95°
2026-04-16 22:13 51.15265 1.55755 24185 ft 450 kts 95°
2026-04-16 22:13 51.15064 1.60743 24521 ft 452 kts 96°
2026-04-16 22:13 51.14841 1.65756 24865 ft 455 kts 96°
2026-04-16 22:14 51.14680 1.69086 25093 ft 456 kts 96°
2026-04-16 22:14 51.14426 1.74139 25430 ft 459 kts 96°
2026-04-16 22:14 51.14163 1.79219 25759 ft 461 kts 96°
2026-04-16 22:14 51.13897 1.84325 26085 ft 464 kts 96°
2026-04-16 22:15 51.13628 1.89454 26411 ft 466 kts 96°
2026-04-16 22:15 51.13356 1.94607 26729 ft 469 kts 96°
2026-04-16 22:15 51.13083 1.99790 27039 ft 471 kts 96°
2026-04-16 22:15 51.12811 2.05011 27361 ft 474 kts 96°
2026-04-16 22:16 51.12538 2.10240 27668 ft 476 kts 96°
2026-04-16 22:16 51.12259 2.15514 27995 ft 479 kts 96°
2026-04-16 22:16 51.11973 2.20809 28318 ft 481 kts 96°
2026-04-16 22:16 51.11682 2.26130 28637 ft 484 kts 96°
2026-04-16 22:17 51.11384 2.31474 28953 ft 486 kts 96°
2026-04-16 22:17 51.11082 2.36841 29326 ft 487 kts 96°
2026-04-16 22:17 51.10781 2.42208 29783 ft 486 kts 96°
2026-04-16 22:17 51.10483 2.47562 30225 ft 486 kts 96°
2026-04-16 22:18 51.10184 2.52917 30616 ft 485 kts 96°
2026-04-16 22:18 51.09880 2.58257 31010 ft 485 kts 96°
2026-04-16 22:18 51.09543 2.63590 31401 ft 483 kts 100°
2026-04-16 22:18 51.08843 2.68782 31803 ft 479 kts 108°
2026-04-16 22:19 51.07914 2.73873 32198 ft 478 kts 108°
2026-04-16 22:19 51.06988 2.78944 32623 ft 477 kts 108°
2026-04-16 22:19 51.06066 2.84009 33034 ft 476 kts 108°
2026-04-16 22:19 51.05148 2.89057 33214 ft 477 kts 108°
2026-04-16 22:20 51.03289 2.99257 33239 ft 482 kts 108°
2026-04-16 22:20 51.01406 3.09491 33249 ft 483 kts 109°
2026-04-16 22:21 50.99513 3.19727 33236 ft 483 kts 109°
2026-04-16 22:21 50.97610 3.29953 33237 ft 483 kts 109°
2026-04-16 22:22 50.95701 3.40177 33245 ft 483 kts 109°
2026-04-16 22:22 50.93782 3.50383 33239 ft 483 kts 109°
2026-04-16 22:23 50.91853 3.60598 33243 ft 483 kts 109°
2026-04-16 22:23 50.89927 3.70730 33245 ft 483 kts 109°
2026-04-16 22:24 50.87963 3.80911 33249 ft 483 kts 109°
2026-04-16 22:24 50.85972 3.91146 33252 ft 484 kts 109°
2026-04-16 22:25 50.83989 4.01248 33251 ft 484 kts 109°
2026-04-16 22:25 50.81993 4.11421 33250 ft 484 kts 109°
2026-04-16 22:26 50.80064 4.21230 33252 ft 484 kts 110°
2026-04-16 22:26 50.78052 4.31393 33249 ft 484 kts 110°
2026-04-16 22:27 50.76032 4.41553 33247 ft 485 kts 110°
2026-04-16 22:27 50.74002 4.51703 33251 ft 485 kts 110°
2026-04-16 22:28 50.71961 4.61845 33257 ft 485 kts 110°
2026-04-16 22:28 50.69964 4.72024 33257 ft 486 kts 109°
2026-04-16 22:29 50.68068 4.81924 33261 ft 486 kts 109°
2026-04-16 22:29 50.66095 4.92098 33266 ft 485 kts 110°
2026-04-16 22:30 50.64051 5.02222 33271 ft 485 kts 111°
2026-04-16 22:30 50.61947 5.12309 33271 ft 484 kts 111°
2026-04-16 22:31 50.59860 5.22322 33278 ft 484 kts 111°
2026-04-16 22:31 50.57766 5.32383 33279 ft 484 kts 111°
2026-04-16 22:32 50.55668 5.42430 33281 ft 483 kts 111°
2026-04-16 22:32 50.53563 5.52456 33279 ft 483 kts 111°
2026-04-16 22:33 50.51547 5.62520 33278 ft 485 kts 105°
2026-04-16 22:33 50.50546 5.73031 33272 ft 486 kts 100°
2026-04-16 22:34 50.49612 5.83555 33270 ft 486 kts 100°
2026-04-16 22:34 50.48652 5.94047 33254 ft 486 kts 100°
2026-04-16 22:35 50.47685 6.04541 33252 ft 485 kts 101°
2026-04-16 22:35 50.46713 6.15026 33249 ft 485 kts 101°
2026-04-16 22:36 50.45748 6.25441 33238 ft 485 kts 101°
2026-04-16 22:36 50.44958 6.33908 33239 ft 485 kts 101°
2026-04-16 22:37 50.43979 6.44289 33240 ft 484 kts 101°
2026-04-16 22:37 50.42980 6.54724 33234 ft 484 kts 101°
2026-04-16 22:38 50.41974 6.65148 33231 ft 483 kts 101°
2026-04-16 22:38 50.40961 6.75559 33250 ft 483 kts 101°
2026-04-16 22:39 50.39934 6.85959 33251 ft 482 kts 101°
2026-04-16 22:39 50.38900 6.96335 33257 ft 482 kts 101°
2026-04-16 22:40 50.37856 7.06721 33248 ft 482 kts 101°
2026-04-16 22:40 50.36806 7.17078 33245 ft 481 kts 101°
2026-04-16 22:41 50.35749 7.27417 33260 ft 481 kts 102°
2026-04-16 22:41 50.34682 7.37757 33258 ft 481 kts 102°
2026-04-16 22:42 50.33609 7.48083 33254 ft 480 kts 102°
2026-04-16 22:42 50.32533 7.58391 33263 ft 480 kts 102°
2026-04-16 22:43 50.31449 7.68668 32750 ft 477 kts 102°
2026-04-16 22:43 50.30902 7.73793 32045 ft 478 kts 101°
2026-04-16 22:43 50.30349 7.78927 31334 ft 479 kts 101°
2026-04-16 22:44 50.29793 7.84063 30624 ft 480 kts 101°
2026-04-16 22:44 50.29234 7.89216 29841 ft 482 kts 101°
2026-04-16 22:44 50.28684 7.94384 28998 ft 483 kts 100°
2026-04-16 22:44 50.28202 7.99593 28146 ft 484 kts 99°
2026-04-16 22:45 50.27778 8.04811 27282 ft 485 kts 98°
2026-04-16 22:45 50.27380 8.10053 26401 ft 486 kts 98°
2026-04-16 22:45 50.26983 8.15294 25521 ft 486 kts 98°
2026-04-16 22:45 50.26571 8.20543 24604 ft 487 kts 98°
2026-04-16 22:46 50.26136 8.25794 23675 ft 488 kts 98°
2026-04-16 22:46 50.25686 8.31022 22551 ft 489 kts 99°
2026-04-16 22:46 50.25221 8.36286 21413 ft 490 kts 99°
2026-04-16 22:46 50.24749 8.41565 20672 ft 490 kts 98°
2026-04-16 22:47 50.24283 8.46829 20386 ft 489 kts 98°
2026-04-16 22:47 50.23819 8.52077 20199 ft 487 kts 98°
2026-04-16 22:47 50.23354 8.57310 20248 ft 487 kts 98°
2026-04-16 22:47 50.22888 8.62561 20238 ft 487 kts 98°
2026-04-16 22:48 50.22425 8.67797 20245 ft 487 kts 98°
2026-04-16 22:48 50.21960 8.73036 20241 ft 487 kts 98°
2026-04-16 22:48 50.21494 8.78274 20240 ft 487 kts 98°
2026-04-16 22:48 50.21023 8.83507 20243 ft 487 kts 98°
2026-04-16 22:49 50.20545 8.88743 20239 ft 487 kts 98°
2026-04-16 22:49 50.20062 8.93979 20243 ft 487 kts 98°
2026-04-16 22:49 50.19577 8.99203 20236 ft 487 kts 98°
2026-04-16 22:49 50.19090 9.04434 20234 ft 487 kts 98°
2026-04-16 22:50 50.18607 9.09654 20239 ft 487 kts 98°
2026-04-16 22:50 50.18121 9.14891 20244 ft 487 kts 98°
2026-04-16 22:50 50.17634 9.20098 19950 ft 482 kts 98°
2026-04-16 22:50 50.17147 9.25262 18996 ft 480 kts 98°
2026-04-16 22:51 50.16661 9.30378 18149 ft 475 kts 98°
2026-04-16 22:51 50.16177 9.35444 17293 ft 467 kts 98°
2026-04-16 22:51 50.15701 9.40403 16174 ft 462 kts 98°
2026-04-16 22:51 50.15242 9.45218 16174 ft 437 kts 98°
2026-04-16 22:52 50.14817 9.49849 15297 ft 435 kts 98°
2026-04-16 22:52 50.14359 9.54517 14822 ft 427 kts 99°
2026-04-16 22:52 50.13895 9.59035 14213 ft 422 kts 99°
2026-04-16 22:52 50.13473 9.63603 13078 ft 429 kts 97°
2026-04-16 22:53 50.13119 9.68133 13271 ft 423 kts 97°
2026-04-16 22:53 50.12736 9.72747 13317 ft 433 kts 98°
2026-04-16 22:53 50.12259 9.77383 13112 ft 431 kts 100°
2026-04-16 22:53 50.11744 9.81964 12396 ft 426 kts 100°
2026-04-16 22:54 50.11250 9.86440 11937 ft 415 kts 99°
2026-04-16 22:54 50.10824 9.90805 11624 ft 400 kts 98°
2026-04-16 22:54 50.10471 9.95106 11291 ft 407 kts 96°
2026-04-16 22:54 50.10169 9.99558 11260 ft 419 kts 98°
2026-04-16 22:55 50.09710 10.04047 11248 ft 421 kts 101°
2026-04-16 22:55 50.09167 10.08466 11245 ft 421 kts 101°
2026-04-16 22:55 50.08600 10.12943 11248 ft 421 kts 101°
2026-04-16 22:55 50.08053 10.17424 11255 ft 421 kts 101°
2026-04-16 22:56 50.07542 10.21916 11246 ft 421 kts 100°
2026-04-16 22:56 50.07058 10.26475 11254 ft 421 kts 99°
2026-04-16 22:56 50.06612 10.30925 11246 ft 421 kts 99°
2026-04-16 22:56 50.06167 10.35486 11244 ft 421 kts 99°
2026-04-16 22:57 50.05727 10.39992 11244 ft 421 kts 99°
2026-04-16 22:57 50.05277 10.44498 11253 ft 421 kts 99°
2026-04-16 22:57 50.04824 10.48929 11251 ft 421 kts 99°
2026-04-16 22:57 50.04511 10.51969 11256 ft 421 kts 99°
2026-04-16 22:58 50.04043 10.56460 11248 ft 421 kts 99°
2026-04-16 22:58 50.03572 10.60956 11246 ft 421 kts 99°
2026-04-16 22:58 50.03099 10.65451 11251 ft 421 kts 99°
2026-04-16 22:58 50.02474 10.71392 11248 ft 421 kts 99°
2026-04-16 22:59 50.02156 10.74419 11248 ft 420 kts 99°
2026-04-16 22:59 50.01683 10.78909 11246 ft 420 kts 99°
2026-04-16 22:59 50.01210 10.83394 11244 ft 421 kts 99°
2026-04-16 22:59 50.00734 10.87881 11253 ft 420 kts 100°
2026-04-16 23:00 50.00256 10.92365 11253 ft 423 kts 100°
2026-04-16 23:00 49.99768 10.96917 11706 ft 428 kts 100°
2026-04-16 23:00 49.99282 11.01494 12365 ft 427 kts 99°
2026-04-16 23:00 49.98800 11.06046 12970 ft 431 kts 99°
2026-04-16 23:01 49.98309 11.10569 12965 ft 414 kts 100°
2026-04-16 23:01 49.97835 11.14846 12970 ft 391 kts 100°
2026-04-16 23:01 49.97380 11.18911 12841 ft 375 kts 100°
2026-04-16 23:01 49.96975 11.22873 12371 ft 369 kts 96°
2026-04-16 23:02 49.96834 11.26838 11848 ft 366 kts 93°
2026-04-16 23:02 49.96716 11.30763 11338 ft 363 kts 93°
2026-04-16 23:02 49.96596 11.34658 11058 ft 360 kts 93°
2026-04-16 23:02 49.96476 11.38550 11007 ft 361 kts 93°
2026-04-16 23:03 49.96355 11.42401 11019 ft 362 kts 93°
2026-04-16 23:03 49.96231 11.46304 11019 ft 362 kts 93°
2026-04-16 23:03 49.96106 11.50204 11021 ft 362 kts 93°
2026-04-16 23:03 49.95977 11.54101 11017 ft 362 kts 93°
2026-04-16 23:04 49.95847 11.57996 11019 ft 361 kts 93°
2026-04-16 23:04 49.95716 11.61894 11017 ft 361 kts 93°
2026-04-16 23:04 49.95585 11.65789 11016 ft 361 kts 93°
2026-04-16 23:04 49.95452 11.69738 11015 ft 361 kts 93°
2026-04-16 23:05 49.95317 11.73630 11015 ft 361 kts 93°
2026-04-16 23:05 49.95179 11.77473 11012 ft 361 kts 93°
2026-04-16 23:05 49.95041 11.81360 11010 ft 361 kts 93°
2026-04-16 23:05 49.94900 11.85294 10922 ft 358 kts 93°
2026-04-16 23:06 49.94760 11.89139 10404 ft 356 kts 94°
2026-04-16 23:06 49.94617 11.92962 10068 ft 353 kts 94°
2026-04-16 23:06 49.94494 11.96769 9995 ft 354 kts 92°
2026-04-16 23:06 49.94408 12.00601 10012 ft 355 kts 92°
2026-04-16 23:07 49.94342 12.04381 10014 ft 355 kts 91°
2026-04-16 23:07 49.94279 12.08214 10024 ft 355 kts 91°
2026-04-16 23:07 49.94216 12.12052 10010 ft 355 kts 91°
2026-04-16 23:07 49.94147 12.15933 10021 ft 355 kts 92°
2026-04-16 23:08 49.94070 12.19769 10015 ft 355 kts 92°
2026-04-16 23:08 49.93986 12.23600 10017 ft 355 kts 92°
2026-04-16 23:08 49.93896 12.27373 10021 ft 355 kts 92°
2026-04-16 23:08 49.93800 12.31255 10024 ft 355 kts 92°
2026-04-16 23:09 49.93708 12.35035 10025 ft 355 kts 92°
2026-04-16 23:09 49.93611 12.38867 10024 ft 355 kts 92°
2026-04-16 23:09 49.93506 12.42694 10024 ft 355 kts 92°
2026-04-16 23:09 49.93396 12.46515 10025 ft 355 kts 92°
2026-04-16 23:10 49.93284 12.50333 10022 ft 355 kts 92°
2026-04-16 23:10 49.93173 12.54158 10026 ft 354 kts 92°
2026-04-16 23:10 49.93063 12.57978 10022 ft 354 kts 92°
2026-04-16 23:10 49.92949 12.61797 10031 ft 355 kts 92°
2026-04-16 23:11 49.92834 12.65621 10028 ft 354 kts 92°
2026-04-16 23:11 49.92720 12.69433 10029 ft 354 kts 92°
2026-04-16 23:11 49.92603 12.73255 10033 ft 354 kts 92°
2026-04-16 23:11 49.92487 12.77075 10031 ft 354 kts 92°
2026-04-16 23:12 49.92369 12.80891 10029 ft 354 kts 92°
2026-04-16 23:12 49.92251 12.84682 9705 ft 349 kts 92°
2026-04-16 23:12 49.92134 12.88369 9566 ft 335 kts 92°
2026-04-16 23:12 49.92022 12.91917 9430 ft 323 kts 92°
2026-04-16 23:13 49.91911 12.95343 9292 ft 312 kts 93°
2026-04-16 23:13 49.91801 12.98651 9168 ft 302 kts 93°
2026-04-16 23:13 49.91694 13.01859 9016 ft 294 kts 93°
2026-04-16 23:13 49.91590 13.05004 8751 ft 290 kts 93°
2026-04-16 23:14 49.91484 13.08120 8448 ft 288 kts 93°
2026-04-16 23:14 49.91377 13.11225 8137 ft 286 kts 93°
2026-04-16 23:14 49.91269 13.14300 7828 ft 285 kts 93°
2026-04-16 23:14 49.91163 13.17359 7532 ft 283 kts 93°
2026-04-16 23:15 49.90954 13.23431 6931 ft 281 kts 93°
2026-04-16 23:15 49.90849 13.26445 6628 ft 279 kts 93°
2026-04-16 23:15 49.90743 13.29437 6334 ft 277 kts 93°
2026-04-16 23:16 49.90634 13.32419 6036 ft 276 kts 93°
2026-04-16 23:16 49.90526 13.35381 5717 ft 274 kts 93°
2026-04-16 23:16 49.90421 13.38320 5418 ft 273 kts 93°
2026-04-16 23:16 49.90349 13.41248 5132 ft 271 kts 89°
2026-04-16 23:17 49.90492 13.44145 5015 ft 269 kts 82°
2026-04-16 23:17 49.90863 13.46994 5030 ft 270 kts 75°
2026-04-16 23:17 49.91464 13.49750 5029 ft 270 kts 67°
2026-04-16 23:17 49.92291 13.52365 5026 ft 270 kts 59°
2026-04-16 23:18 49.93326 13.54803 5022 ft 270 kts 52°
2026-04-16 23:18 49.94477 13.57108 5027 ft 270 kts 52°
2026-04-16 23:18 49.95624 13.59416 5018 ft 270 kts 52°
2026-04-16 23:18 49.96767 13.61724 5021 ft 270 kts 52°
2026-04-16 23:19 49.97909 13.64038 5023 ft 270 kts 52°
2026-04-16 23:19 49.99037 13.66327 5022 ft 270 kts 52°
2026-04-16 23:19 50.00197 13.68676 5025 ft 270 kts 52°
2026-04-16 23:19 50.01338 13.70991 5023 ft 270 kts 52°
2026-04-16 23:20 50.02480 13.73314 5022 ft 270 kts 52°
2026-04-16 23:20 50.03619 13.75634 5018 ft 270 kts 52°
2026-04-16 23:20 50.04743 13.77928 5022 ft 270 kts 52°
2026-04-16 23:20 50.05897 13.80286 5018 ft 270 kts 53°
2026-04-16 23:21 50.06902 13.82750 5019 ft 271 kts 61°
2026-04-16 23:21 50.07676 13.85429 5014 ft 271 kts 70°
2026-04-16 23:21 50.08200 13.88247 5011 ft 272 kts 78°
2026-04-16 23:21 50.08533 13.91140 5014 ft 272 kts 80°
2026-04-16 23:22 50.08860 13.94039 5014 ft 272 kts 79°
2026-04-16 23:22 50.09192 13.96936 5010 ft 271 kts 79°
2026-04-16 23:22 50.09524 13.99827 5015 ft 271 kts 79°
2026-04-16 23:22 50.09855 14.02720 5013 ft 272 kts 79°
2026-04-16 23:23 50.10180 14.05575 5014 ft 272 kts 79°
2026-04-16 23:23 50.10507 14.08478 5011 ft 272 kts 79°
2026-04-16 23:23 50.10836 14.11416 5005 ft 272 kts 79°
2026-04-16 23:23 50.11154 14.14282 5009 ft 272 kts 79°
2026-04-16 23:24 50.11475 14.17179 5014 ft 272 kts 79°
2026-04-16 23:24 50.11783 14.19933 5010 ft 272 kts 79°
2026-04-16 23:24 50.12107 14.22835 5010 ft 272 kts 79°
2026-04-16 23:24 50.12431 14.25740 5013 ft 272 kts 79°
2026-04-16 23:25 50.12752 14.28629 4951 ft 271 kts 79°
2026-04-16 23:25 50.13071 14.31515 4627 ft 269 kts 79°
2026-04-16 23:25 50.13345 14.34390 4317 ft 268 kts 85°
2026-04-16 23:25 50.13304 14.37283 4064 ft 265 kts 97°
2026-04-16 23:26 50.12918 14.40094 4006 ft 266 kts 107°
2026-04-16 23:26 50.12198 14.42800 4009 ft 267 kts 118°
2026-04-16 23:26 50.11208 14.45195 4014 ft 267 kts 127°
2026-04-16 23:26 50.10082 14.47507 4010 ft 267 kts 127°
2026-04-16 23:27 50.08971 14.49786 4008 ft 258 kts 127°
2026-04-16 23:27 50.07913 14.51955 4009 ft 244 kts 127°
2026-04-16 23:27 50.06918 14.54002 4009 ft 232 kts 127°
2026-04-16 23:27 50.05947 14.56001 4010 ft 231 kts 127°
2026-04-16 23:28 50.04978 14.57998 4011 ft 231 kts 127°
2026-04-16 23:28 50.03900 14.59828 3918 ft 229 kts 145°
2026-04-16 23:28 50.02449 14.60765 3633 ft 227 kts 173°
2026-04-16 23:28 50.00902 14.60541 3344 ft 225 kts 201°
2026-04-16 23:29 49.99503 14.59487 3058 ft 223 kts 208°
2026-04-16 23:29 49.98160 14.58276 3005 ft 224 kts 221°
2026-04-16 23:29 49.97255 14.56340 3004 ft 223 kts 250°
2026-04-16 23:29 49.97057 14.53972 3006 ft 223 kts 278°
2026-04-16 23:30 49.97599 14.51756 3017 ft 218 kts 306°
2026-04-16 23:30 49.98485 14.49945 3021 ft 204 kts 308°
2026-04-16 23:30 49.99322 14.48239 3014 ft 195 kts 308°
2026-04-16 23:30 50.00133 14.46582 3024 ft 187 kts 307°
2026-04-16 23:31 50.00913 14.44983 3017 ft 184 kts 307°
2026-04-16 23:31 50.01664 14.43435 2733 ft 175 kts 307°
2026-04-16 23:31 50.02345 14.42035 2597 ft 146 kts 307°
2026-04-16 23:31 50.02935 14.40842 2369 ft 136 kts 308°
2026-04-16 23:32 50.03509 14.39726 2102 ft 131 kts 308°
2026-04-16 23:32 50.04111 14.38498 2133 ft 151 kts 306°
2026-04-16 23:32 50.04758 14.37131 2207 ft 164 kts 307°
2026-04-16 23:32 50.05478 14.35660 2171 ft 176 kts 307°
2026-04-16 23:33 50.06217 14.34113 2145 ft 180 kts 306°
2026-04-16 23:33 50.06952 14.32543 2014 ft 180 kts 305°
2026-04-16 23:33 50.07698 14.30991 1789 ft 179 kts 306°
2026-04-16 23:33 50.08439 14.29446 1456 ft 176 kts 305°
2026-04-16 23:34 50.09165 14.27922 1313 ft 175 kts 306°
2026-04-16 23:34 50.09900 14.26433 1245 ft 163 kts 306°
2026-04-16 23:34 50.10443 14.25299 1173 ft 90 kts 303°
2026-04-16 23:34 50.10684 14.24771 1170 ft 20 kts 307°
2026-04-16 23:35 50.10799 14.24636 1174 ft 19 kts 39°
2026-04-16 23:35 50.10842 14.24867 1172 ft 23 kts 107°
2026-04-16 23:35 50.10794 14.25207 1172 ft 41 kts 108°
2026-04-16 23:35 50.10681 14.25519 1172 ft 28 kts 118°
2026-04-16 23:36 50.10586 14.25791 1176 ft 29 kts 123°
2026-04-16 23:36 50.10533 14.26024 1187 ft 22 kts 83°
2026-04-16 23:36 50.10520 14.26270 1192 ft 24 kts 115°
2026-04-16 23:36 50.10469 14.26447 1194 ft 12 kts 60°
2026-04-16 23:37 50.10488 14.26474 1194 ft 0 kts 38°
2026-04-16 23:38 50.10487 14.26475 1194 ft 0 kts 31°